Temp
13 13 12 12 12 12 12 12 11 11 11 11 11 11 11 11 11 11 10 10 10 10 10 10 10 10 10 10 10 10 10 10 9 9 9 9 9 9 9 9 9 9 9 9 9 9 9 8 8 8 8 8 8 8 8 8 8 8 8 8 8 8 8 8 7 7 7 7 7
13 12 12 12 12 12 12 12 11 11 11 11 11 11 11 11 10 10 10 10 10 10 10 10 10 9 9 9 9 9 9 9 9 9 9 9 9 9 9 9 9 9 9 9 8 8 8 8 8 8 8 8 8 7 7 7 7 7 7 7 7 7 7 7 7 7 7 7 7
12 12 12 12 12 12 12 12 11 11 11 11 11 11 10 10 10 10 10 10 9 9 9 9 9 9 9 9 9 9 9 9 9 9 9 9 9 9 9 9 9 8 8 8 8 8 8 8 8 7 7 7 7 7 7 7 7 7 7 7 7 7 7 7 7 7 7 7 7
12 12 12 12 12 12 11 11 11 11 11 11 10 10 10 10 10 10 9 9 9 9 9 9 9 9 9 9 9 9 9 9 9 9 9 9 9 8 8 8 8 8 8 8 8 8 8 7 7 7 7 7 7 7 7 7 7 7 7 7 7 7 7 7 7 7 7 7 7
12 12 12 12 11 11 11 11 11 10 10 10 10 10 10 10 9 9 9 9 9 9 9 9 9 9 9 9 9 8 8 8 8 8 8 8 8 8 8 8 8 8 8 8 7 7 7 7 7 7 7 7 7 6 6 6 6 6 6 6 6 6 6 6 6 6 6 6 6
12 12 11 11 11 11 11 10 10 10 10 10 10 10 10 9 9 9 9 9 9 9 9 9 8 8 8 8 8 8 8 8 8 8 8 8 8 8 8 7 7 7 7 7 7 7 7 7 7 6 6 6 6 6 6 6 6 6 6 6 6 6 6 6 6 6 6 6 6
11 11 11 11 10 10 10 10 10 10 10 10 10 9 9 9 9 9 9 9 9 9 8 8 8 8 8 8 8 8 8 8 8 8 7 7 7 7 7 7 7 7 7 7 7 6 6 6 6 6 6 6 6 6 6 6 5 5 5 5 5 5 5 5 5 5 5 5 5
11 11 10 10 10 10 10 10 10 10 10 9 9 9 9 9 9 9 9 9 8 8 8 8 8 8 8 8 8 8 7 7 7 7 7 7 7 7 7 7 6 6 6 6 6 6 6 6 6 5 5 5 5 5 5 5 5 5 5 5 5 5 5 5 5 5 5 5 5
10 10 10 10 10 10 10 10 10 10 9 9 9 9 9 9 9 9 8 8 8 8 8 8 8 8 8 7 7 7 7 7 7 7 7 6 6 6 6 6 6 6 6 6 6 6 6 5 5 5 5 5 5 5 5 5 5 5 5 5 5 4 4 4 4 4 4 4 4
10 10 10 10 10 10 10 10 9 9 9 9 9 9 9 9 9 8 8 8 8 8 8 8 7 7 7 7 7 7 7 6 6 6 6 6 6 6 6 6 6 6 6 5 5 5 5 5 5 5 5 5 5 5 4 4 4 4 4 4 4 4 4 4 4 4 4 4 4
10 10 10 10 10 10 10 9 9 9 9 9 9 9 9 8 8 8 8 8 8 7 7 7 7 7 7 7 6 6 6 6 6 6 6 6 6 6 5 5 5 5 5 5 5 5 5 4 4 4 4 4 4 4 4 4 4 4 4 4 4 4 4 4 4 3 3 3 3
10 10 10 10 9 9 9 9 9 9 9 9 9 8 8 8 8 8 7 7 7 7 7 7 7 6 6 6 6 6 6 6 6 6 5 5 5 5 5 5 5 5 5 5 5 5 4 4 4 4 4 4 4 4 4 4 3 3 3 3 3 3 3 3 3 3 3 3 2
10 9 9 9 9 9 9 9 9 9 8 8 8 8 8 7 7 7 7 7 7 7 6 6 6 6 6 6 6 6 6 5 5 5 5 5 5 5 5 5 5 5 5 4 4 4 4 4 4 4 4 4 3 3 3 3 3 3 3 3 3 3 3 3 3 2 2 2 2
9 9 9 9 9 9 9 8 8 8 8 8 8 7 7 7 7 7 7 6 6 6 6 6 6 6 6 6 5 5 5 5 5 5 5 5 5 5 5 4 4 4 4 4 4 4 4 4 4 3 3 3 3 3 3 3 3 3 3 3 3 2 2 2 2 2 2 2 2
9 9 9 9 9 8 8 8 8 8 7 7 7 7 7 7 7 6 6 6 6 6 6 6 6 5 5 5 5 5 5 5 5 5 5 5 5 4 4 4 4 4 4 4 4 4 4 3 3 3 3 3 3 3 3 3 3 3 3 2 2 2 2 2 2 2 2 1 1
9 9 8 8 8 8 8 8 7 7 7 7 7 7 7 6 6 6 6 6 6 6 5 5 5 5 5 5 5 5 5 5 5 5 4 4 4 4 4 4 4 4 4 4 4 3 3 3 3 3 3 3 3 3 3 3 2 2 2 2 2 2 2 2 2 2 1 1 1
8 8 8 8 8 8 8 7 7 7 7 7 7 6 6 6 6 6 6 6 5 5 5 5 5 5 5 5 5 5 5 5 4 4 4 4 4 4 4 4 4 4 3 3 3 3 3 3 3 3 3 3 3 2 2 2 2 2 2 2 2 2 2 2 2 1 1 1 1
8 8 8 8 8 7 7 7 7 7 7 6 6 6 6 6 6 6 5 5 5 5 5 5 5 5 5 5 5 5 4 4 4 4 4 4 4 4 4 3 3 3 3 3 3 3 3 3 3 3 3 2 2 2 2 2 2 2 2 2 2 2 2 2 2 1 1 1 1
8 8 8 7 7 7 7 7 7 7 6 6 6 6 6 6 5 5 5 5 5 5 5 5 5 5 5 5 4 4 4 4 4 4 4 4 4 3 3 3 3 3 3 3 3 3 3 3 3 3 2 2 2 2 2 2 2 2 2 2 2 2 2 2 1 1 1 1 1
8 8 7 7 7 7 7 7 6 6 6 6 6 6 5 5 5 5 5 5 5 5 5 5 5 4 4 4 4 4 4 4 4 4 4 3 3 3 3 3 3 3 3 3 3 3 3 3 2 2 2 2 2 2 2 2 2 2 2 2 2 1 1 1 1 1 1 1 1
8 7 7 7 7 7 7 6 6 6 6 6 5 5 5 5 5 5 5 5 5 5 5 4 4 4 4 4 4 4 4 4 4 3 3 3 3 3 3 3 3 3 3 3 3 2 2 2 2 2 2 2 2 2 2 2 2 2 2 2 1 1 1 1 1 1 1 0 0
7 7 7 7 7 7 6 6 6 6 6 5 5 5 5 5 5 5 5 5 5 5 4 4 4 4 4 4 4 4 4 4 3 3 3 3 3 3 3 3 3 2 2 2 2 2 2 2 2 2 2 2 2 2 2 2 2 2 2 2 1 1 1 1 1 1 0 0 0
7 7 7 7 7 6 6 6 6 6 5 5 5 5 5 5 5 5 5 5 5 4 4 4 4 4 4 4 4 4 3 3 3 3 3 3 3 3 3 2 2 2 2 2 2 2 2 2 2 2 2 2 2 2 2 2 2 2 2 2 1 1 1 1 1 1 0 0 0
7 7 7 7 6 6 6 6 6 5 5 5 5 5 5 5 5 5 5 4 4 4 4 4 4 4 4 4 3 3 3 3 3 3 3 3 2 2 2 2 2 2 2 2 2 2 2 2 2 2 2 2 2 2 2 2 2 2 2 1 1 1 1 1 1 1 1 0 0
7 7 7 6 6 6 6 6 6 5 5 5 5 5 5 5 5 5 4 4 4 4 4 4 4 4 4 3 3 3 3 3 3 3 2 2 2 2 2 2 2 2 2 2 2 2 1 2 2 2 2 2 2 2 2 2 2 2 2 1 1 1 1 1 1 1 1 0 0
7 7 7 6 6 6 6 6 6 5 5 5 5 5 5 5 5 4 4 4 4 4 4 4 4 4 3 3 3 3 3 3 2 2 2 2 2 2 2 2 2 2 2 2 2 1 1 2 2 2 2 2 2 2 2 2 2 2 2 1 1 1 1 1 0 0 0 0 0
7 7 6 6 6 6 6 6 6 5 5 5 5 5 5 5 5 4 4 4 4 4 4 4 3 3 3 3 3 3 2 2 2 2 2 2 2 2 2 2 2 2 2 2 1 1 1 2 2 2 2 2 2 2 2 2 2 2 1 1 1 1 1 0 0 0 0 0 0
7 6 6 6 6 6 6 6 6 5 5 5 5 5 5 5 4 4 4 4 4 4 4 3 3 3 3 3 2 2 2 2 2 2 2 2 2 2 2 1 1 1 1 1 1 1 1 2 2 2 2 2 2 2 2 2 2 2 1 1 1 1 0 0 0 0 0 0 0
7 6 6 6 6 6 6 6 6 5 5 5 5 5 5 4 4 4 4 4 4 4 3 3 3 3 3 2 2 2 2 2 2 2 2 2 2 1 1 1 1 1 1 1 1 1 1 2 2 2 2 2 2 2 2 2 2 1 1 1 1 1 0 0 0 0 0 0 0
6 6 6 6 6 6 6 6 6 5 5 5 5 5 4 4 4 4 4 4 4 3 3 3 3 3 3 2 2 2 2 2 2 2 2 1 1 1 1 1 1 1 1 1 1 1 1 1 2 2 2 2 2 2 2 2 2 1 1 1 1 0 0 0 0 0 0 0 -0
6 6 6 6 6 6 6 6 5 5 5 5 5 4 4 4 4 4 4 4 3 3 3 3 3 3 2 2 2 2 2 2 2 2 1 1 1 1 1 1 1 1 1 1 1 1 1 2 2 2 2 2 2 2 2 2 1 1 1 1 1 0 0 0 0 0 0 0 -0
7 6 6 6 6 6 6 6 5 5 5 5 5 4 4 4 4 4 4 3 3 3 3 3 3 2 2 2 2 2 2 2 2 1 1 1 1 1 1 1 1 1 1 1 1 1 1 1 2 2 2 2 2 2 2 2 1 1 1 1 1 0 0 0 0 0 0 0 0
7 7 6 6 6 6 6 6 5 5 5 5 4 4 4 4 4 4 3 3 3 3 3 2 2 2 2 2 2 2 2 2 1 1 1 1 1 1 1 1 1 1 1 1 1 1 1 1 1 2 2 2 2 2 2 1 1 1 1 1 0 0 0 0 0 0 0 0 0
7 7 6 6 6 6 6 6 5 5 5 4 4 4 4 4 4 3 3 3 3 3 2 2 2 2 2 2 2 2 2 1 1 1 1 1 1 1 1 1 1 1 1 1 1 1 1 1 1 1 2 2 2 2 1 1 1 1 1 1 0 0 0 0 0 0 0 0 0
7 6 6 6 6 6 6 5 5 5 5 4 4 4 4 4 3 3 3 3 3 2 2 2 2 2 2 2 2 2 1 1 1 1 1 1 1 1 1 1 1 1 1 1 1 1 1 1 1 1 1 2 1 1 1 1 1 1 1 0 0 0 0 0 0 0 0 0 0
7 6 6 6 6 6 5 5 5 5 4 4 4 4 4 3 3 3 3 3 2 2 2 2 2 2 2 2 2 1 1 1 1 1 1 1 1 1 1 1 1 1 1 1 1 1 1 1 1 1 1 1 1 1 1 1 1 1 1 0 0 0 0 0 0 0 0 0 1
6 6 6 6 6 5 5 5 5 5 4 4 4 4 3 3 3 3 3 3 2 2 2 2 2 2 2 2 1 1 1 1 1 1 1 1 1 1 1 0 1 1 1 1 1 1 1 1 1 1 1 1 1 1 1 1 1 0 0 0 0 0 0 0 0 0 0 1 1
6 6 6 6 5 5 5 5 5 4 4 4 4 4 3 3 3 3 3 2 2 2 2 2 2 2 2 1 1 1 1 1 1 1 1 1 1 1 0 0 0 0 1 1 1 1 1 1 1 1 1 1 1 1 1 1 0 0 0 0 0 0 0 0 0 0 1 1 1
6 6 6 5 5 5 5 5 4 4 4 4 4 3 3 3 3 3 2 2 2 2 2 2 2 2 1 1 1 1 1 1 1 1 1 1 1 0 0 0 0 0 0 1 0 0 0 1 1 1 1 1 1 1 1 0 0 0 0 0 0 0 0 0 0 1 1 1 1
6 6 5 5 5 5 5 4 4 4 4 4 3 3 3 3 3 2 2 2 2 2 2 2 2 1 1 1 1 1 1 1 1 1 1 0 0 0 0 0 0 0 0 0 0 0 0 0 1 1 1 1 1 1 0 0 0 0 0 0 0 0 0 0 1 1 1 1 1
6 5 5 5 5 5 4 4 4 4 4 3 3 3 3 3 2 2 2 2 2 2 2 1 1 1 1 1 1 1 1 1 1 1 0 0 0 0 0 0 0 0 0 0 0 0 0 0 0 1 1 0 0 0 0 0 -0 -0 0 0 0 0 0 1 1 1 1 1 1
Height
840 840 840 840 840 840 840 840 840 840 840 840 840 840 839 839 839 838 838 837 837 836 835 835 834 833 833 832 831 831 830 829 829 828 827 826 826 825 824 824 823 822 821 820 820 819 818 817 817 816 815 814 813 812 811 811 810 810 809 808 807 806 805 805 804 803 803 802 801
839 839 839 839 839 840 840 840 840 840 840 839 839 839 839 838 838 837 837 836 836 835 835 834 833 832 832 831 830 830 829 828 827 826 826 825 824 824 823 822 821 820 820 819 818 817 816 816 815 814 813 812 811 810 810 809 809 808 807 806 806 805 804 803 802 801 801 800 800
839 839 839 839 839 839 839 839 839 839 839 839 839 838 838 837 837 836 836 835 835 834 833 833 832 831 830 830 829 828 828 827 826 825 824 823 823 822 821 820 820 819 818 817 816 816 815 814 813 812 811 810 810 809 808 807 807 806 805 805 804 804 803 802 801 800 800 799 798
838 838 838 838 839 839 839 838 838 838 838 838 838 837 837 836 836 835 835 834 834 833 832 831 830 830 829 828 828 827 826 825 825 824 823 822 821 820 820 819 818 817 816 816 815 814 813 813 812 810 810 809 808 807 806 805 805 805 804 803 803 802 801 800 800 799 798 797 797
838 838 838 838 838 838 838 838 838 837 837 837 837 836 836 835 835 834 834 833 832 831 831 830 830 829 828 827 826 825 825 824 823 822 821 820 820 819 818 817 816 816 815 814 813 812 812 811 810 809 808 807 806 805 805 804 804 803 802 801 801 800 800 799 798 798 797 796 795
837 837 837 837 837 837 837 837 837 837 836 836 836 835 835 834 834 833 832 832 831 830 830 829 828 827 826 826 825 824 823 822 822 821 820 819 818 817 816 816 815 814 813 812 812 811 810 809 808 807 806 805 805 804 803 803 802 801 800 800 799 799 798 797 797 796 795 795 794
837 837 837 837 837 837 836 836 836 836 835 835 835 834 834 833 832 832 831 830 830 829 828 828 827 826 825 824 823 822 822 821 820 819 818 817 816 816 815 814 813 812 812 811 810 809 808 808 806 805 804 804 803 802 801 801 800 800 799 798 797 797 797 796 795 795 794 793 792
836 836 836 836 836 836 836 835 835 835 835 834 834 833 833 832 831 830 830 829 828 828 827 826 825 825 824 823 822 821 820 819 818 818 817 816 815 814 813 812 812 811 810 809 808 807 807 806 805 804 803 802 801 800 800 800 799 798 797 796 795 795 795 794 793 793 792 791 790
835 835 835 835 835 835 835 835 834 834 834 833 833 832 831 831 830 830 829 828 827 826 825 825 824 823 822 821 820 820 819 818 817 816 815 815 814 813 812 811 810 809 808 808 807 806 805 804 803 802 801 801 800 799 798 798 797 796 795 795 794 793 793 792 792 791 790 790 789
835 835 835 835 835 834 834 834 833 833 833 832 832 831 830 830 829 828 827 827 826 825 824 824 823 822 821 820 819 818 818 817 816 815 814 813 812 811 810 810 809 808 807 806 805 805 804 803 802 801 800 800 799 798 797 796 796 795 794 793 792 791 791 790 790 790 789 788 787
834 834 834 834 834 833 833 833 832 832 832 831 831 830 830 829 828 827 826 825 825 824 823 822 821 820 820 819 818 817 816 815 815 814 813 812 811 810 809 808 807 806 805 805 804 803 802 801 800 799 798 798 797 796 795 795 794 793 792 791 791 790 789 788 788 787 787 786 785
833 833 833 833 833 832 832 832 831 831 831 830 830 829 828 827 826 826 825 824 823 822 821 821 820 819 818 817 816 815 815 814 813 812 811 810 809 809 808 807 806 805 804 803 803 802 801 800 799 798 797 796 795 795 794 793 792 791 790 789 789 788 787 786 785 785 785 784 783
833 832 832 832 832 832 831 831 831 830 830 829 828 828 827 826 825 824 823 822 821 821 820 819 819 818 817 816 815 814 813 812 812 811 810 809 808 807 806 805 804 804 803 802 801 800 799 798 797 796 795 794 794 793 792 792 791 790 788 787 786 786 785 784 783 783 782 782 781
832 832 832 831 831 831 830 830 830 829 829 828 827 826 825 824 824 823 822 821 820 819 819 818 817 816 815 815 814 813 812 811 810 809 808 807 806 805 805 804 803 802 801 800 800 799 798 797 796 795 794 792 792 791 790 790 789 788 787 785 785 784 783 782 781 781 780 780 779
831 831 831 830 830 830 830 829 829 828 827 826 825 825 824 823 822 821 820 820 819 818 817 816 815 815 814 813 812 811 810 810 809 808 807 805 805 804 803 802 801 800 799 798 798 797 796 795 794 793 792 791 790 789 788 788 787 786 785 784 783 782 781 780 779 779 778 777 776
830 830 830 830 830 829 829 828 827 827 826 825 824 823 822 821 821 820 819 818 817 816 816 815 814 813 812 812 811 810 809 808 807 806 805 804 803 802 801 800 799 798 798 797 795 795 794 793 792 791 790 789 788 787 786 785 785 784 783 782 781 780 779 778 777 777 776 775 775
830 829 829 829 829 828 828 827 826 825 825 824 823 822 821 820 820 819 818 817 816 815 814 813 813 812 811 810 810 809 808 806 805 805 804 802 801 800 800 799 798 797 796 795 794 793 792 791 790 790 789 787 786 785 784 783 782 781 780 780 779 778 777 776 775 775 774 773 773
829 828 828 828 827 827 826 826 825 824 823 822 821 821 820 819 818 817 816 816 815 814 813 812 811 810 810 809 808 807 806 805 804 803 802 801 800 799 798 797 796 795 794 793 792 791 790 789 788 787 786 785 784 783 782 781 780 779 778 777 776 775 775 774 773 773 772 771 770
828 827 827 827 826 826 825 825 824 823 822 821 820 819 819 818 817 816 815 814 814 813 811 810 810 809 808 807 806 805 805 804 803 801 800 800 798 797 796 795 794 793 792 791 790 789 788 787 786 785 784 783 782 781 780 779 778 777 776 775 774 773 773 772 771 771 770 769 768
827 826 826 826 825 825 824 823 822 821 820 820 819 818 817 816 815 815 814 813 812 811 810 809 808 807 806 805 805 804 803 802 801 800 799 798 797 796 795 794 793 792 791 790 789 787 786 785 784 783 782 781 780 779 778 777 776 775 774 773 772 771 770 770 769 768 768 767 766
826 825 825 825 824 823 823 822 821 820 819 818 818 817 816 815 814 813 812 811 810 810 809 808 807 806 805 804 803 802 801 800 800 798 797 796 795 794 793 792 791 790 789 788 787 786 785 784 782 781 780 779 778 777 775 775 773 772 771 770 770 769 768 768 767 766 765 765 764
825 824 824 823 823 822 821 820 820 819 818 817 816 815 815 814 813 812 811 810 809 808 807 806 805 805 804 803 802 800 800 799 798 797 796 795 794 793 792 791 790 788 787 786 785 784 783 782 780 779 778 777 776 775 774 772 771 770 769 768 768 767 766 766 765 764 763 763 762
824 823 823 822 821 821 820 819 818 817 817 816 815 814 813 812 811 810 810 809 808 807 806 805 804 803 802 801 800 799 798 797 796 795 794 793 792 791 790 789 788 787 785 784 783 782 781 780 778 777 776 775 774 773 772 770 770 768 767 766 765 765 764 764 763 762 761 761 760
822 822 821 821 820 819 819 818 817 816 815 814 814 813 812 811 810 809 808 807 806 805 805 804 803 802 801 800 799 798 797 795 794 793 792 791 790 790 788 787 786 785 784 783 782 781 780 779 777 776 775 774 772 771 770 769 768 767 765 764 763 762 762 761 761 760 760 759 758
821 821 820 820 819 818 817 816 815 815 814 813 812 811 810 809 808 808 807 806 805 804 803 802 801 800 800 798 797 796 795 794 793 792 790 790 789 788 787 785 784 783 782 781 780 780 779 778 776 775 774 772 771 770 768 767 766 765 764 763 761 760 760 759 758 758 758 757 756
820 820 819 818 817 816 816 815 814 813 812 811 811 810 809 808 807 806 805 805 804 803 802 801 800 799 798 797 796 795 794 793 791 790 789 788 787 786 785 784 783 781 780 780 779 778 777 776 775 774 772 771 769 768 766 765 764 763 762 761 760 759 758 757 756 755 755 755 754
819 818 817 817 816 815 814 814 813 812 811 810 809 808 808 807 806 805 804 803 802 801 800 800 799 797 796 795 794 793 792 791 790 789 788 786 785 784 783 782 781 780 779 778 777 776 775 774 773 772 771 769 768 766 765 763 762 761 760 759 758 757 756 755 754 753 752 751 751
817 817 816 815 815 814 813 812 811 810 810 809 808 807 806 805 805 804 803 802 801 800 799 798 797 796 795 794 793 791 790 789 788 787 786 785 784 783 781 780 779 778 777 776 776 775 774 772 771 770 769 768 766 765 763 761 760 759 758 757 756 755 754 753 752 751 750 749 748
816 815 815 814 813 812 811 810 810 809 808 807 806 806 805 804 803 802 801 800 800 798 797 796 795 794 793 792 791 790 789 787 786 785 784 783 782 781 780 779 777 776 775 775 774 773 772 770 769 768 767 766 765 763 761 760 758 757 756 755 754 753 752 751 750 749 748 747 745
815 814 813 812 811 810 810 809 808 808 807 806 805 804 804 803 802 801 800 799 798 797 796 795 794 793 791 790 789 788 787 786 785 784 783 781 780 779 778 777 775 775 774 773 772 771 770 769 767 766 765 764 763 761 760 758 757 755 754 753 752 751 750 750 748 747 746 745 744
813 812 811 810 810 809 808 808 807 806 805 805 804 803 802 801 801 800 799 798 796 795 795 794 792 791 790 789 788 787 785 784 783 782 781 780 779 777 776 775 774 773 772 771 770 769 768 767 765 764 763 762 760 759 758 756 755 754 752 751 750 750 749 747 746 745 744 743 742
811 811 810 809 808 808 807 806 805 805 804 803 803 802 801 800 800 799 797 796 795 794 793 792 790 789 788 787 786 785 784 783 781 780 780 778 777 776 774 773 772 771 770 770 769 767 766 765 763 762 761 760 758 757 755 754 753 752 751 750 749 748 746 745 744 743 742 741 740
810 809 809 808 807 806 805 805 804 804 803 802 801 801 800 799 798 797 796 795 794 793 791 790 789 788 786 785 784 783 782 781 780 779 778 777 775 774 773 771 770 769 769 768 767 765 764 763 761 760 759 757 756 755 753 752 751 750 749 748 746 745 745 743 742 741 740 738 737
809 808 807 806 805 805 804 803 803 802 801 801 800 799 799 797 796 795 794 793 792 791 790 789 788 786 785 784 783 781 780 779 778 777 776 775 774 772 771 770 768 767 767 766 765 763 762 760 759 758 756 755 754 752 751 750 749 748 747 745 744 743 742 741 740 738 737 736 735
807 806 806 805 804 803 803 802 801 801 800 800 799 798 797 796 795 794 792 791 790 789 788 787 786 785 784 782 781 780 779 777 776 775 774 773 772 770 769 767 766 765 765 764 763 761 760 759 757 756 755 753 752 750 749 748 747 745 745 743 742 741 740 739 737 736 735 734 732
806 805 804 804 803 802 801 801 800 800 799 798 797 796 795 794 793 792 791 790 789 788 786 785 784 783 782 780 780 779 777 776 775 773 772 771 770 769 767 765 764 763 762 762 761 760 758 757 755 754 753 751 750 748 747 746 745 744 742 741 740 739 738 736 735 734 733 731 730
805 804 803 802 802 801 800 800 799 798 797 796 795 795 794 793 791 790 790 789 787 786 785 784 782 781 780 779 778 776 775 775 773 772 771 770 769 767 765 763 762 761 760 760 759 758 756 755 754 752 751 749 748 746 745 744 742 741 740 739 738 737 735 734 733 731 730 729 728
804 803 802 801 800 800 799 799 798 797 796 795 794 793 792 791 790 789 788 787 786 785 783 782 780 780 778 777 776 775 774 773 772 770 769 768 767 765 764 762 760 759 758 758 757 755 754 753 752 750 749 748 746 745 743 742 741 740 739 737 736 734 733 732 731 729 728 726 725
802 802 801 800 800 799 798 797 796 795 794 793 792 791 790 790 789 787 786 786 785 783 782 780 779 778 777 775 774 773 772 771 770 769 768 766 765 764 762 760 758 757 756 755 755 754 752 751 750 749 748 746 745 743 742 740 739 738 736 735 734 732 730 730 729 727 725 724 723
801 800 800 799 798 797 796 795 795 794 793 792 791 790 789 788 787 786 785 784 783 782 781 779 778 776 775 774 773 771 770 768 768 767 766 765 763 762 761 759 757 755 754 753 752 751 750 750 748 747 746 745 743 742 740 739 737 736 735 733 731 730 728 727 726 725 724 722 721
800 799 798 798 797 796 795 794 793 792 792 791 790 789 788 787 786 785 784 782 781 780 779 778 776 775 773 772 771 770 768 766 765 764 764 762 761 760 759 757 755 754 752 751 750 750 749 748 747 745 745 743 742 740 739 737 735 734 732 731 729 728 726 725 724 723 722 720 719
Wind_Speed
2 2 1 1 2 3 4 5 6 6 7 8 9 10 12 13 14 15 16 17 18 19 19 20 21 21 22 22 22 23 23 24 24 24 24 24 24 24 25 25 26 26 27 27 28 28 28 29 29 29 29 29 29 29 29 28 28 28 27 27 28 28 29 30 30 31 32 32 32
3 3 2 1 2 3 4 5 6 7 8 9 10 11 13 14 15 16 17 17 18 18 19 20 20 21 22 22 23 23 23 24 24 24 24 24 24 25 25 25 26 26 27 27 28 28 29 29 29 30 30 29 29 29 28 28 28 27 27 27 27 27 27 28 29 30 30 31 32
3 2 2 2 3 4 5 6 7 8 9 10 11 12 13 14 15 16 17 18 18 18 19 20 21 21 22 23 23 23 23 23 24 24 24 25 25 25 26 26 26 27 27 28 28 29 29 29 29 29 29 29 29 28 28 28 27 27 27 27 26 26 26 26 26 27 28 28 29
3 2 3 4 5 5 6 7 8 9 10 11 12 13 14 15 16 17 18 18 18 19 19 20 21 21 22 22 23 23 23 23 24 24 25 25 26 26 26 27 27 28 28 28 29 29 29 29 29 29 29 29 28 28 28 28 28 27 27 27 27 26 26 25 25 25 25 25 26
2 3 3 4 5 5 6 7 8 10 11 12 13 14 15 16 17 18 18 19 19 19 20 20 21 21 22 22 23 23 23 24 24 25 26 26 27 27 27 28 28 28 29 29 29 29 29 29 29 29 29 29 28 28 28 28 28 28 28 27 27 27 27 27 26 26 25 24 24
2 2 3 3 4 5 6 8 9 10 11 13 14 15 16 17 18 18 19 19 20 20 20 21 21 22 22 23 23 24 24 25 25 26 26 27 27 28 28 28 28 29 29 29 29 29 29 30 30 30 30 29 29 29 28 28 28 28 28 28 28 28 28 28 28 28 27 26 26
1 2 2 3 4 6 7 8 10 11 12 13 14 16 17 18 18 19 19 19 20 20 21 21 22 22 23 24 24 25 25 26 26 26 27 27 28 28 28 28 28 29 29 29 29 30 30 30 30 30 29 29 28 28 28 28 28 28 29 29 29 28 28 28 28 28 29 29 29
1 2 3 4 5 6 8 9 10 11 12 14 15 16 17 18 18 19 19 20 20 21 21 22 23 23 24 25 25 26 26 26 27 27 27 27 28 28 28 28 28 28 29 29 29 30 30 30 31 30 29 29 29 28 28 28 29 29 29 29 29 29 28 28 28 28 28 29 30
1 2 3 4 6 7 8 9 10 12 13 14 15 16 17 18 18 19 19 20 21 21 22 23 23 24 25 25 26 26 26 26 27 27 27 27 27 28 28 28 29 29 29 29 30 31 31 31 30 30 29 29 29 29 29 29 29 29 29 29 29 29 29 29 29 29 29 29 30
2 3 4 5 6 7 8 9 10 12 13 14 15 16 17 18 18 19 20 21 21 22 23 23 24 24 25 25 25 26 26 26 26 27 27 27 27 28 28 29 29 30 30 30 31 31 31 31 30 30 30 29 30 30 30 30 30 30 30 30 30 30 30 31 31 30 30 30 30
2 3 4 6 7 8 9 10 11 12 13 14 15 16 17 18 18 19 20 21 21 22 23 23 24 24 25 25 25 25 25 26 26 26 27 27 28 28 29 29 30 31 31 31 31 31 31 30 30 30 30 30 30 30 30 30 30 30 30 31 31 31 32 32 32 31 31 30 30
3 4 5 6 7 8 9 10 11 12 13 14 15 16 17 18 18 19 20 21 21 22 22 22 23 24 24 24 25 25 25 26 26 27 27 28 28 29 29 30 30 31 31 31 31 31 31 30 30 31 32 32 31 31 30 30 30 31 31 32 32 32 32 32 32 31 31 30 30
3 4 5 6 7 8 9 11 12 13 14 15 16 17 17 18 18 19 20 20 21 21 22 22 22 23 24 24 25 25 26 26 27 27 28 28 29 30 30 30 31 31 31 31 31 31 31 31 31 32 32 32 32 31 31 31 31 31 32 32 32 32 32 32 32 32 31 30 30
3 4 5 6 7 9 10 11 13 14 15 16 16 17 17 18 18 18 19 20 20 21 21 22 22 23 23 24 25 25 26 26 27 28 28 29 29 30 30 30 31 31 31 31 31 31 32 32 32 32 32 32 32 32 31 31 31 31 32 32 32 32 32 32 32 31 31 30 30
3 4 5 7 8 10 11 12 13 14 15 16 16 17 17 18 18 18 18 19 20 20 21 22 23 23 23 24 25 26 26 27 28 28 29 29 30 30 30 30 31 31 31 32 32 32 32 32 32 32 32 32 32 32 32 32 31 31 32 32 32 32 32 32 32 31 31 31 31
4 5 7 8 9 11 12 13 14 15 16 16 16 17 17 17 17 18 18 19 20 20 21 22 23 24 24 24 25 26 27 27 28 28 29 29 30 30 30 30 31 31 32 33 33 33 33 33 32 32 32 32 32 32 32 32 32 32 32 32 32 32 32 32 32 32 32 31 31
5 6 8 9 10 12 13 14 15 15 16 16 16 16 17 17 17 18 18 19 20 21 22 22 23 24 25 25 26 26 27 28 28 29 29 29 30 30 31 31 31 32 32 33 33 33 33 33 33 32 32 32 32 32 32 32 32 33 32 32 32 32 32 32 32 32 32 32 31
6 7 9 10 11 12 13 14 15 16 16 16 17 17 17 17 18 18 19 19 20 21 22 23 24 24 25 26 27 27 27 28 28 29 29 30 30 30 31 31 32 32 32 33 33 33 33 33 33 33 32 32 32 32 32 33 33 33 32 32 32 32 32 32 32 32 31 31 31
7 8 9 10 12 13 14 15 16 16 16 17 17 17 18 18 18 19 20 20 21 22 23 24 25 25 26 26 27 28 28 28 29 29 30 30 30 31 31 31 32 32 32 33 33 33 33 33 33 33 33 33 33 33 32 32 32 32 32 32 32 32 32 31 31 31 30 30 30
8 8 9 11 12 13 14 15 16 17 17 17 18 18 19 19 19 20 21 21 22 22 23 24 25 26 27 27 28 28 28 29 29 29 30 30 30 31 31 31 32 32 32 33 33 33 33 33 33 33 33 33 32 32 32 31 31 31 31 31 31 31 30 30 30 29 29 29 29
8 9 10 11 12 14 15 16 17 17 18 18 19 19 20 20 20 21 21 22 23 24 24 25 26 27 27 28 28 29 29 29 29 29 30 30 30 31 31 32 32 32 33 33 33 33 33 33 33 33 32 32 31 31 31 31 31 31 31 30 30 29 29 29 28 28 27 27 28
8 9 10 11 13 14 15 16 17 18 18 19 20 20 21 21 21 22 22 23 24 24 25 26 26 27 28 28 29 29 30 29 29 29 30 30 30 31 31 32 32 33 33 33 33 33 33 33 32 31 31 30 30 30 31 30 30 30 30 30 30 29 29 28 27 26 26 26 26
9 10 11 12 13 14 16 16 17 18 19 20 21 21 21 22 22 23 23 24 24 25 26 27 27 28 28 29 29 29 29 30 30 30 30 30 31 31 32 32 32 32 32 32 32 32 32 31 30 30 29 29 30 30 30 30 30 30 30 30 30 29 29 27 26 25 25 25 25
10 10 11 12 14 15 16 17 18 19 20 21 21 22 22 23 23 23 24 25 25 26 27 27 28 28 28 29 29 29 29 29 30 30 31 31 31 32 32 32 32 32 31 31 31 31 30 28 28 28 29 29 30 30 30 30 29 29 30 30 29 29 28 27 26 25 25 25 25
10 11 12 13 14 15 17 18 19 20 21 21 22 22 23 23 24 24 25 25 26 27 27 28 28 29 29 29 28 28 28 29 30 30 31 32 32 32 32 32 31 31 31 31 31 29 27 26 27 28 29 30 30 30 30 30 30 29 29 28 28 28 27 27 26 26 25 25 26
11 12 13 14 15 16 17 18 19 20 21 22 23 23 23 24 24 25 25 26 27 27 28 28 29 29 28 28 28 28 29 29 30 30 31 31 32 32 32 32 31 31 31 32 30 29 27 27 27 28 29 29 30 30 30 30 30 29 28 27 27 26 26 26 27 27 27 27 27
11 12 13 14 16 17 18 19 20 21 22 22 23 23 24 24 24 25 26 26 27 28 28 28 28 28 28 28 28 28 29 30 30 30 31 31 31 32 32 31 31 32 32 31 30 28 28 28 28 28 28 28 29 29 29 30 29 28 27 26 25 25 25 26 27 28 28 28 28
12 13 14 15 16 18 19 20 21 21 22 23 23 23 24 24 24 25 26 27 28 28 29 28 28 28 28 28 28 29 30 30 30 31 30 30 31 31 31 31 31 32 32 31 29 28 28 28 28 28 28 28 28 29 29 29 28 27 26 25 24 24 25 25 26 27 28 28 28
12 13 15 16 17 18 20 20 21 22 22 23 23 23 24 24 25 26 27 28 28 28 28 28 28 28 28 28 29 29 30 30 30 30 30 30 31 31 31 31 31 32 31 30 29 28 28 28 28 28 28 27 28 28 28 28 27 26 25 25 24 25 25 26 27 27 28 28 28
13 14 15 17 18 19 20 21 22 22 22 23 23 23 24 25 26 27 27 28 28 28 28 28 28 28 28 29 29 29 30 30 30 30 30 30 30 31 31 31 31 32 32 31 29 28 28 28 28 28 28 28 28 28 28 28 27 26 25 25 25 25 26 27 27 28 28 28 28
14 15 16 18 19 20 21 22 22 22 22 22 22 23 24 25 26 27 28 28 28 28 28 28 28 28 29 29 29 29 29 30 30 30 30 30 30 30 31 31 32 32 32 30 29 28 28 29 29 29 29 28 28 28 28 28 27 26 25 25 26 26 27 27 28 28 28 29 29
15 16 17 18 20 21 22 22 22 22 22 22 22 23 24 26 27 27 28 28 28 28 28 28 28 28 29 29 29 29 29 30 30 30 29 29 30 31 31 32 32 32 31 30 29 29 29 29 30 29 29 29 28 28 28 28 27 26 26 26 26 27 27 28 28 29 29 30 30
16 17 18 19 21 22 22 23 22 22 22 22 23 24 25 26 27 28 28 28 28 27 27 28 28 28 29 29 29 29 29 29 29 29 29 30 30 31 31 31 31 31 30 29 29 29 30 30 30 30 29 29 28 28 28 27 26 26 26 26 26 27 27 28 29 29 30 30 31
17 18 19 20 21 22 23 23 22 22 22 23 23 25 25 26 27 28 28 28 27 27 27 27 27 28 28 28 29 29 29 29 29 30 30 30 30 31 31 31 31 31 30 30 30 30 30 30 30 30 29 29 28 28 27 27 26 26 26 26 26 27 27 28 30 31 31 32 31
18 19 20 21 22 22 23 23 22 22 22 23 24 25 26 26 27 27 28 28 28 27 27 28 28 28 28 29 29 29 29 29 30 30 30 30 30 31 31 32 32 32 31 30 30 30 30 30 30 30 29 29 28 28 27 27 26 26 25 26 26 27 28 29 30 31 32 32 32
19 20 21 22 22 22 22 22 22 22 23 24 25 25 26 27 27 27 28 28 28 27 27 28 28 28 29 29 29 29 29 29 30 30 30 30 30 30 31 32 33 33 32 31 30 30 30 30 30 29 29 28 28 28 27 26 25 25 25 26 27 28 29 30 30 31 31 32 32
19 20 21 22 22 22 22 22 23 23 24 24 25 25 26 27 27 28 28 27 27 27 27 28 28 28 29 29 29 30 30 30 30 30 30 30 30 31 32 32 33 33 32 31 30 29 29 29 29 29 28 28 27 27 26 25 24 24 25 26 27 28 29 29 29 30 31 32 32
20 20 21 22 22 23 23 23 23 24 24 25 25 26 26 27 27 27 27 27 26 27 27 28 29 29 30 30 30 30 30 30 30 30 30 30 31 31 31 32 33 33 32 31 30 30 29 29 28 27 27 27 27 26 26 25 24 25 25 26 27 28 29 29 29 29 30 31 32
20 21 21 22 23 23 23 23 23 24 24 25 25 26 27 27 27 27 27 26 26 27 27 28 29 30 30 30 30 30 31 30 30 30 30 30 31 31 31 31 32 32 32 32 31 29 28 27 27 26 26 26 27 27 26 25 25 25 26 26 27 28 28 28 28 28 29 30 30
21 21 22 23 23 23 23 23 24 24 24 25 25 26 27 27 27 27 27 27 27 27 28 29 29 30 30 30 30 30 31 31 31 31 31 31 31 30 30 30 31 32 32 31 30 29 27 26 26 26 26 26 27 27 26 25 25 25 26 26 26 27 27 26 25 25 26 28 30
22 22 23 23 23 23 23 23 24 24 24 25 25 26 26 27 27 27 27 28 28 28 29 29 30 30 31 30 30 30 31 32 32 32 31 31 30 30 30 30 30 31 31 30 29 27 26 25 25 26 26 26 27 27 26 25 25 25 26 27 27 25 24 23 23 24 26 27 28
Wind_Direction
185 190 206 258 306 320 325 326 324 322 320 318 317 316 315 314 314 314 314 314 313 313 313 313 313 314 314 314 315 315 314 314 313 312 311 310 309 308 307 306 305 304 304 304 304 304 304 305 305 304 304 303 302 302 301 300 300 299 298 296 293 291 288 285 282 281 279 278 276
161 164 172 239 297 308 311 312 310 310 310 311 312 313 313 314 314 315 315 316 316 315 314 314 314 314 314 314 314 314 314 314 313 312 311 309 308 307 306 305 304 304 304 304 304 304 305 305 305 305 304 303 303 302 301 300 300 300 299 298 296 294 292 288 285 283 281 279 278
173 189 225 269 289 297 302 304 306 308 309 311 313 314 314 315 316 317 317 318 317 316 315 314 314 313 313 313 312 312 312 312 311 310 309 308 307 306 305 305 304 304 304 304 304 304 305 305 305 305 304 304 303 302 301 301 300 300 299 299 298 297 295 292 289 287 285 282 280
203 235 269 287 296 302 305 308 310 313 314 315 316 316 316 317 318 318 319 319 318 317 316 314 313 312 312 311 311 310 309 308 308 307 306 305 305 305 304 304 304 304 304 304 304 304 304 304 305 304 304 303 303 302 301 301 301 300 299 298 298 298 297 295 294 293 290 287 285
233 268 289 301 307 310 312 313 314 314 315 316 316 316 317 318 319 319 319 319 318 317 315 314 312 311 311 310 309 308 307 306 306 305 305 304 304 304 304 304 304 304 304 304 304 304 304 304 304 304 303 303 303 302 301 301 301 300 299 298 297 297 296 296 296 296 295 294 292
269 295 309 317 317 315 313 314 314 315 315 316 316 317 318 319 319 319 318 317 316 315 313 312 311 310 309 309 308 307 306 306 305 305 305 305 304 304 304 304 304 304 304 304 304 304 304 304 304 304 304 303 302 302 301 301 301 300 299 298 297 296 296 295 295 295 296 296 295
324 336 335 327 320 317 315 315 316 316 316 316 317 317 318 318 317 316 315 314 313 312 311 310 309 309 309 308 307 307 306 306 306 306 306 305 305 305 305 305 305 305 305 305 305 305 305 305 305 305 304 304 303 302 302 302 301 301 300 299 298 297 297 296 295 295 295 295 295
17 353 336 325 320 317 318 318 318 317 316 316 316 316 316 315 314 313 312 311 311 310 309 309 308 308 308 307 307 307 307 307 307 307 307 307 306 306 306 306 306 306 306 306 306 306 306 306 305 305 304 304 303 302 302 302 302 301 300 299 299 298 298 297 297 296 295 295 295
10 338 325 321 320 319 318 318 317 316 315 314 314 313 313 312 311 311 310 310 309 308 308 308 308 307 307 307 307 307 307 307 307 308 308 308 307 307 307 307 307 307 307 308 308 307 307 307 306 305 304 304 303 303 303 303 302 301 301 300 300 299 299 298 297 297 296 296 295
346 329 323 320 319 318 316 315 314 313 312 312 311 311 310 310 310 309 309 308 308 307 307 308 308 308 308 308 308 308 308 308 308 308 308 308 308 308 307 308 307 308 308 308 309 308 308 307 306 305 304 303 303 303 303 303 302 302 301 300 300 300 299 299 298 298 297 297 296
335 326 322 319 316 315 314 314 313 313 312 312 311 311 311 310 310 310 309 309 308 308 308 309 309 309 309 309 309 309 309 309 309 308 308 308 307 307 307 307 307 308 308 308 309 308 308 306 305 304 304 304 303 303 303 303 303 302 301 301 300 300 299 299 299 298 298 297 296
330 323 320 318 317 316 317 317 317 316 315 314 314 313 313 313 313 312 311 311 310 310 310 311 311 310 310 309 309 309 309 309 309 308 308 307 307 307 307 307 307 307 308 308 308 308 307 306 305 304 304 304 304 303 303 303 303 302 301 301 300 300 299 299 299 298 298 297 296
331 326 324 323 322 323 323 323 322 320 319 318 317 317 316 316 316 315 314 313 312 312 312 313 312 311 311 310 310 310 310 309 309 308 307 307 307 307 307 307 307 307 307 307 307 307 306 305 305 304 304 304 304 303 303 303 302 302 301 301 300 300 299 299 299 299 298 297 296
337 334 333 332 331 330 329 327 325 323 322 321 320 320 320 319 319 319 317 315 314 314 314 313 313 312 311 311 311 310 310 309 309 308 307 307 307 307 307 307 307 307 307 307 307 306 306 305 305 304 304 304 304 304 303 303 302 301 301 300 300 299 299 299 299 299 298 297 296
348 344 341 339 337 334 332 329 327 325 324 323 324 323 323 322 322 321 320 318 316 316 315 314 314 314 313 312 311 311 310 309 309 308 307 307 307 307 307 306 306 306 306 306 307 306 306 305 305 305 304 304 304 304 304 303 302 302 301 300 299 299 299 298 299 298 298 297 296
356 351 347 343 339 337 334 332 330 329 327 327 327 327 326 325 325 324 322 320 319 318 317 316 315 315 314 313 312 311 310 310 309 308 308 307 307 307 307 307 307 307 307 307 307 307 306 306 306 305 305 304 304 304 304 304 303 302 301 301 300 299 299 298 298 298 297 296 295
360 354 349 345 342 339 337 335 334 332 331 331 330 330 329 328 327 326 325 323 321 320 318 317 317 316 315 314 313 313 311 310 310 309 308 308 308 308 307 307 307 307 307 307 307 307 307 307 307 306 306 305 305 304 304 304 303 303 302 301 300 299 298 298 298 297 296 295 294
360 354 350 346 343 341 340 339 338 336 335 334 333 332 331 330 329 327 326 325 323 321 320 319 318 317 316 315 314 314 312 311 310 310 309 308 308 308 307 307 307 308 308 308 307 307 307 308 308 307 307 306 305 305 305 304 303 302 302 301 300 299 299 298 297 297 295 294 292
357 353 349 346 344 343 342 342 341 340 338 337 335 334 333 331 329 328 326 326 325 323 321 319 319 318 317 315 315 314 313 312 311 310 310 309 308 308 308 308 308 308 308 308 308 308 308 308 308 308 308 307 306 306 305 304 303 302 301 300 299 299 298 298 297 296 294 293 292
353 350 347 345 345 344 344 344 343 342 340 339 337 334 333 332 330 328 326 326 326 324 322 320 319 318 317 316 315 315 314 313 312 311 310 309 309 308 308 309 309 309 309 308 308 308 308 309 309 309 308 307 307 306 305 304 303 302 301 300 300 299 298 298 297 296 294 293 292
347 344 344 344 344 344 344 344 344 343 341 339 337 335 333 331 330 328 327 326 326 324 322 320 319 318 318 317 316 315 314 313 312 311 310 310 309 309 309 309 309 309 309 309 309 309 309 309 309 309 309 308 307 306 305 305 303 303 302 302 301 300 299 299 297 296 294 293 292
341 340 340 341 341 341 342 342 343 342 340 338 336 335 333 331 330 328 327 326 325 323 322 321 319 318 317 317 316 315 314 313 312 311 310 310 309 309 310 310 309 309 309 309 309 309 310 310 310 310 309 308 307 307 307 306 305 304 304 303 302 301 300 299 298 296 294 293 293
336 336 336 337 337 338 339 340 340 340 338 337 336 334 333 331 329 328 327 326 324 322 321 320 319 318 317 316 315 314 313 312 312 311 310 310 310 310 310 310 309 309 309 309 309 310 310 310 310 309 309 308 308 307 307 306 306 306 305 304 303 302 300 299 298 296 296 295 294
332 331 332 333 334 335 336 337 337 337 336 335 334 333 332 330 329 327 326 324 322 321 320 319 318 317 316 315 314 314 313 312 311 311 311 311 310 310 310 310 310 309 309 309 310 310 310 309 308 308 308 308 308 307 307 306 306 305 304 303 302 301 300 299 298 298 297 296 296
327 327 327 329 330 332 333 334 334 334 333 333 333 332 330 329 328 326 324 322 321 320 319 318 317 316 316 315 314 313 312 311 311 310 310 311 311 311 311 310 309 309 309 310 310 310 308 307 307 307 308 308 307 307 306 306 305 303 302 301 300 300 300 300 299 299 299 298 297
324 323 324 325 327 328 329 330 330 330 330 331 330 330 329 328 326 324 322 320 319 318 317 317 316 316 315 314 313 312 312 311 311 310 310 310 311 311 311 310 309 309 310 310 310 309 308 307 307 308 307 307 307 306 306 305 304 303 302 301 300 300 300 300 300 300 300 298 297
321 320 321 323 324 325 326 327 327 327 328 328 328 327 327 326 324 322 320 318 318 317 316 316 316 315 314 314 313 312 311 311 311 311 310 310 310 310 310 310 309 309 310 310 309 308 308 308 308 308 307 307 307 306 305 304 304 303 302 301 300 300 300 299 300 300 300 299 298
318 318 319 320 320 321 323 324 324 324 325 325 325 325 324 323 321 319 318 317 317 316 316 315 315 315 314 313 312 311 311 311 311 311 310 310 310 309 309 309 309 309 310 310 309 308 308 308 308 308 307 307 306 306 305 305 304 304 302 301 300 300 300 299 298 298 299 298 298
317 317 317 317 318 319 320 321 321 321 322 323 323 322 321 320 319 318 317 317 316 316 315 315 314 314 313 312 311 311 311 311 311 311 310 310 309 309 309 309 309 309 310 310 309 308 308 308 308 308 308 307 307 306 305 305 304 303 302 301 300 300 300 298 298 297 297 297 296
318 317 316 316 316 317 318 319 319 319 320 320 320 319 319 319 318 317 317 316 315 315 314 314 313 312 312 311 311 311 310 310 310 310 310 309 309 309 309 309 309 309 310 310 309 308 308 308 308 308 308 308 307 306 305 304 304 303 302 301 300 300 300 298 297 296 296 295 294
320 318 316 315 315 315 316 317 317 318 318 317 317 317 317 317 317 316 316 315 314 314 314 313 312 311 311 311 310 310 309 310 310 310 309 309 308 308 308 309 309 309 310 310 309 309 309 309 308 308 308 308 307 306 305 304 304 303 302 301 301 300 299 297 296 295 295 295 294
321 319 317 315 314 315 316 317 316 316 316 315 315 315 315 315 315 315 315 314 314 313 313 312 311 311 310 310 310 309 309 309 309 309 309 308 308 308 308 308 308 309 310 310 309 309 309 309 309 309 308 308 307 306 305 304 304 303 302 301 300 298 297 297 295 295 295 294 293
322 320 317 316 315 316 316 316 316 315 314 313 313 314 314 315 315 315 314 314 314 313 312 311 310 310 309 309 309 309 309 309 308 308 309 309 308 308 308 308 308 309 309 310 309 310 310 310 309 309 309 308 307 306 305 304 304 303 302 300 299 298 297 296 295 294 293 293 292
322 320 318 317 316 316 316 316 315 314 312 312 312 313 314 314 314 314 314 314 313 312 311 310 309 309 308 308 308 308 308 308 308 309 309 309 309 308 308 307 308 308 309 310 310 310 310 310 310 309 309 309 307 306 305 305 304 302 301 300 299 299 298 297 295 294 293 293 292
322 320 319 318 317 317 316 315 314 312 311 311 312 313 314 314 314 314 313 314 313 312 310 310 309 309 308 308 308 308 308 308 308 308 309 309 309 308 307 307 307 309 310 310 310 310 310 310 310 310 310 309 308 307 305 305 304 303 302 301 300 299 298 296 295 294 294 294 293
321 320 319 318 318 317 316 314 313 312 311 312 313 313 314 314 314 313 313 313 313 311 310 310 309 309 309 309 309 309 308 308 308 308 309 309 308 308 307 307 308 309 310 311 311 310 310 311 311 311 310 309 308 307 306 305 304 303 303 302 300 298 297 296 295 295 294 294 294
321 320 319 318 317 316 315 314 312 312 312 312 313 313 313 313 313 313 313 313 312 311 310 310 310 309 309 309 309 308 308 308 308 308 308 308 308 307 307 307 308 309 310 311 311 311 311 311 311 311 310 310 309 307 307 306 304 303 303 301 299 297 296 295 295 294 294 294 294
320 319 318 317 316 315 314 313 312 312 312 312 312 313 313 313 313 313 313 313 312 310 309 309 309 309 309 309 308 308 308 307 307 307 307 307 307 307 307 307 307 309 310 311 311 311 311 311 311 311 311 310 309 308 307 306 304 303 301 299 297 295 294 294 294 294 294 296 297
318 317 317 316 315 314 313 313 312 312 312 312 312 312 312 312 312 312 312 312 310 309 309 308 308 308 308 308 308 307 307 307 307 307 307 307 307 307 307 306 306 307 309 310 311 311 311 311 311 311 311 311 310 309 308 306 304 302 299 297 295 293 292 292 292 293 295 297 299
315 315 315 314 314 313 313 312 312 312 311 311 312 312 312 311 311 311 311 310 310 309 308 308 307 307 308 308 307 307 306 307 307 307 307 307 307 307 307 306 306 307 309 311 311 312 311 311 311 312 312 312 311 310 308 306 303 301 298 295 292 290 289 290 291 293 295 296 298
314 314 314 313 313 313 312 312 311 311 311 311 311 311 310 310 310 310 310 310 309 309 308 308 307 307 307 307 306 306 306 306 307 307 308 307 307 307 307 306 306 308 309 311 312 312 312 312 312 313 313 313 312 310 309 306 303 300 297 294 290 287 286 289 293 296 296 295 295